Regional Weather Roundup
Issued by NWS

Home | Current Version | Previous Version | Text Only | Print | Product List | Glossary Off
Versions: 1 2 3 4 5 6 7 8 9 10 11 12 13 14 15 16 17 18 19 20 21 22 23 24 25 26 27 28 29 30 31 32 33 34 35 36 37 38 39 40 41 42 43 44 45 46 47 48 49 50

000
ASUS43 KIND 042309
RWRIN

WEATHER ROUNDUP FOR INDIANA
NATIONAL WEATHER SERVICE INDIANAPOLIS IN
700 PM EDT TUE AUG 04 2015

NOTE: "FAIR" INDICATES FEW OR NO CLOUDS BELOW 12,000 FEET WITH NO
SIGNIFICANT WEATHER AND/OR OBSTRUCTIONS TO VISIBILITY.

* - STATION DOES NOT REPORT WEATHER SUCH AS PRECIPITATION OR FOG.

+ - STATION NOT QUALITY CONTROLLED BY THE NATIONAL WEATHER SERVICE.
    USE DATA WITH CAUTION...ESPECIALLY DEWPOINT AND RELATIVE
    HUMIDITY OBSERVATIONS.

INZ001>003-010>013-019-020-050000-
NORTHWEST INDIANA

CITY           SKY/WX    TMP DP  RH WIND       PRES   REMARKS
GARY /AIRPORT/ MOSUNNY   79  55  44 NE10      29.95F
KNOX *+        PTSUNNY   75  57  53 W5        29.95F
LA PORTE +     PTSUNNY   77  56  48 N5        29.97F
MICHIGAN CITY+ PTSUNNY   77  50  38 N3        29.96F
MONTICELLO +   MOSUNNY   78  60  52 W6        29.96F
RENSSELAER +   PTSUNNY   79  54  41 W6        29.96F
VALPARAISO     PTSUNNY   79  58  48 CALM      29.96F

$$

LMZ046-743>745-050000-
SOUTHERN LAKE MICHIGAN

STATION/POSITION TIME  TEMP    WIND        PRES    WAVE
                       AIR SEA DIR/SP/G            HT
                 (UTC) (F)     (DEG/KT/KT) (MB)    (FT)
BURNS HARBOR     2200   77      60/  7/  8 1014.9F
MICHIGAN CITY    2200   75      30/  3/  4   N/A
5NW MICH CITY    2300   76 76   70/  4/  6   N/A     1

$$

INZ004-005-014>016-021>024-050000-
NORTH CENTRAL INDIANA

CITY           SKY/WX    TMP DP  RH WIND       PRES   REMARKS
ELKHART        SUNNY     77  52  41 NW7       29.97F
GOSHEN         PTSUNNY   75  59  57 NW5       29.96F
LOGANSPORT +   PTSUNNY   77  52  41 W7        29.97F
PERU/GRISSOM   PTSUNNY   79  59  50 W9        29.96F
ROCHESTER +    PTSUNNY   79  57  47 NW7       29.96F
SOUTH BEND     PTSUNNY   78  51  38 NW7       29.97F
WARSAW +       PTSUNNY   77  57  50 W7        29.96F

$$

INZ006>009-017-018-025>027-050000-
NORTHEAST INDIANA

CITY           SKY/WX    TMP DP  RH WIND       PRES   REMARKS
ANGOLA *+      SUNNY     75  70  83 NW7       29.97F
AUBURN +       PTSUNNY   77  54  44 W9        29.97F
FORT WAYNE     PTSUNNY   77  60  55 W8        29.97F
HUNTINGTON +   PTSUNNY   76  58  54 NW5       29.96F

$$

INZ028-029-035-036-043>045-051>053-050000-
WEST CENTRAL INDIANA

CITY           SKY/WX    TMP DP  RH WIND       PRES   REMARKS
CRAWFORDSVL +  MOSUNNY   76  51  42 NW5         N/A
GREENCASTLE +  MOSUNNY   77  54  44 N5        29.97F
LAFAYETTE      MOSUNNY   78  59  51 NW5       29.95F
TERRE HAUTE    PTSUNNY   80  60  50 CALM      29.97F

$$

INZ030>032-037>040-046>048-054>057-064-065-050000-
CENTRAL INDIANA

CITY           SKY/WX    TMP DP  RH WIND       PRES   REMARKS
COLUMBUS       SUNNY     79  50  36 W6        29.98F
FISHERS *+     PTSUNNY   77  61  57 NW6       29.97F
FRANKFORT +    PTSUNNY   78  60  54 W5        29.99F
GREENWOOD *+   PTSUNNY   79  55  44 NW6       29.97F
INDIANAPOLIS   PTSUNNY   79  55  43 NW13      29.95F
-EAGLE CREEK   PTSUNNY   79  57  46 NW8       29.96F
KOKOMO *+      PTSUNNY   79  57  47 W12       29.97F
MARION +       PTSUNNY   76  56  50 W8        29.98F
MT COMFORT *+  MOSUNNY   79  54  41 W8        29.98F
SHELBYVILLE    PTSUNNY   81  60  48 NW9       29.96F
ZIONSVILLE +   PTSUNNY   79  56  45 NW8       29.98F

$$

INZ033-034-041-042-049-050-058-059-050000-
EAST CENTRAL INDIANA

CITY           SKY/WX    TMP DP  RH WIND       PRES   REMARKS
MUNCIE         MOSUNNY   75  59  57 W10       29.98F

$$

INZ060-061-067>069-081>083-085>088-050000-
SOUTHWEST INDIANA

CITY           SKY/WX    TMP DP  RH WIND       PRES   REMARKS
EVANSVILLE     TSTM      72  68  87 NW17G24   30.00R
HUNTINGBURG *+ CLOUDY    75  64  69 N12G21    30.01R THUNDER
WASHINGTON +   PTSUNNY   79  65  61 CALM      29.97S

$$

INZ062-063-066-070>080-084-089>092-050000-
SOUTH CENTRAL AND SOUTHEAST INDIANA

CITY           SKY/WX    TMP DP  RH WIND       PRES   REMARKS
BLOOMINGTON    PTSUNNY   78  64  61 NW5       29.98F
MADISON *+     MOSUNNY   79  63  57 CALM      30.01R
NORTH VERNON + MOSUNNY   81  64  57 NW3       29.99S
SEYMOUR +      PTSUNNY   81  64  57 NW7       29.96F

$$




USA.gov is the U.S. government's official web portal to all federal, state and local government web resources and services.